User: anonymous   Login
Location: *
(40.7873°S, 98.7174°E)
Time: 20:24:01
(UTC+00:00)
Language:

Cosmos 1697 Rocket - Orbit

View from above orbital plane
View from above orbital plane
View from above satellite
View from above satellite

Ground track
Ground track

The orbit data is extracted from the following two-line orbital elements,

1 16182U 85097B   22229.73227953 -.00000194  00000-0 -73653-4 0  9996
2 16182  71.0049 356.5886 0005353  72.6211  73.3450 14.16284353903468
Epoch (UTC): 17 August 2022 17:34:28
Eccentricity: 0.0005353
inclination: 71.0049°
perigee height: 834 km
apogee height: 842 km
right ascension of ascending node: 356.5886°
argument of perigee: 72.6211°
revolutions per day: 14.16284353
mean anomaly at epoch: 73.3450°
orbit number at epoch: 90346

The dashed part of the orbit path shows where the satellite is in the earth's shadow,  

DLR